CET,Max TemperatureF,Mean TemperatureF,Min TemperatureF,Max Dew PointF,MeanDew PointF,Min DewpointF,Max Humidity, Mean Humidity, Min Humidity, Max Sea Level PressureIn, Mean Sea Level PressureIn, Min Sea Level PressureIn, Max VisibilityMiles, Mean VisibilityMiles, Min VisibilityMiles, Max Wind SpeedMPH, Mean Wind SpeedMPH, Max Gust SpeedMPH,PrecipitationIn, CloudCover, Events, WindDirDegrees
2013-11-1,49,41,33,41,38,30,93,84,64,30.24,30.11,29.98,12,5,2,20,9,,0.00,5,,205
2013-11-2,56,47,38,52,46,39,100,89,82,29.97,29.78,29.68,19,5,1,22,8,,0.04,3,Rain,192
2013-11-3,52,47,42,51,44,36,88,82,68,29.77,29.68,29.59,19,6,2,24,15,33,0.12,3,Rain,220
2013-11-4,53,46,39,41,37,34,81,69,40,29.79,29.49,29.30,6,6,6,16,11,,0.00,2,,178
2013-11-5,45,40,35,43,37,30,93,80,65,29.56,29.47,29.30,6,6,4,16,12,,0.00,6,Rain,229
2013-11-6,47,41,35,43,37,30,93,81,53,29.74,29.54,29.39,19,7,5,23,12,31,0.02,5,Rain,224
2013-11-7,59,52,44,51,48,43,100,82,66,29.87,29.78,29.71,6,6,4,32,15,45,0.00,4,Rain,220
2013-11-8,61,56,50,50,48,45,94,79,56,29.88,29.84,29.77,12,6,6,21,11,,0.01,4,Rain,197
2013-11-9,50,46,41,48,43,36,94,82,66,29.94,29.85,29.74,6,6,6,21,11,,0.00,4,Rain,216
2013-11-10,47,41,35,41,38,32,100,86,71,29.98,29.73,29.62,9,6,4,16,8,,0.28,6,Rain,233
2013-11-11,43,40,37,37,35,32,93,84,70,30.50,30.30,30.01,16,7,6,9,6,,0.00,6,Rain,304
2013-11-12,45,38,32,34,31,28,93,76,51,30.51,30.33,30.24,19,7,5,7,3,,0.00,5,,111
2013-11-13,43,36,30,39,33,30,100,91,81,30.47,30.34,30.24,16,6,4,12,5,,0.00,6,Rain,243
2013-11-14,35,30,26,34,31,25,100,95,92,30.41,30.19,30.09,6,2,0,10,5,,0.00,7,Fog,97
2013-11-15,37,34,32,36,34,30,100,97,92,30.44,30.28,30.12,4,2,0,7,2,,0.04,8,Fog-Rain-Snow,1
2013-11-16,45,40,33,39,36,34,100,90,68,30.46,30.38,30.33,7,4,2,9,4,,0.00,6,,345
2013-11-17,35,32,29,36,32,28,100,97,93,30.38,30.25,30.12,3,0,0,7,3,,0.00,3,Fog,29
2013-11-18,41,38,34,41,38,36,100,96,84,30.15,29.95,29.83,6,3,0,8,6,,0.00,8,Fog,128
2013-11-19,43,41,39,41,39,37,93,90,85,29.88,29.71,29.59,6,5,3,13,7,,0.01,8,,110
2013-11-20,42,38,35,41,39,34,100,94,87,29.63,29.55,29.50,6,4,1,16,9,,0.04,8,Rain,189
2013-11-21,41,38,35,39,35,30,93,88,75,29.67,29.55,29.50,19,6,2,12,6,,0.00,8,Rain,67
2013-11-22,45,42,39,41,39,36,100,90,71,29.83,29.67,29.56,11,5,2,13,8,,0.00,7,Rain,58
2013-11-23,43,40,38,39,38,37,100,91,81,29.96,29.88,29.83,9,4,0,13,7,,0.00,8,Fog,360
2013-11-24,39,36,32,41,34,23,100,86,69,30.06,29.95,29.89,7,6,3,24,13,36,0.00,7,Rain-Snow,339
2013-11-25,34,30,26,27,24,21,86,76,58,30.31,30.19,30.09,6,6,2,20,13,,0.00,4,Snow,310
2013-11-26,33,28,24,27,25,21,93,83,58,30.52,30.35,30.27,19,7,6,15,9,,0.00,3,,315
2013-11-27,32,26,20,23,21,17,93,79,51,30.58,30.45,30.39,16,8,6,14,8,,0.00,2,,237
2013-11-28,35,30,25,32,27,20,93,82,60,30.47,30.30,30.24,19,6,4,21,17,,0.00,8,Rain-Snow,232
2013-11-29,38,36,33,34,32,30,93,87,71,30.32,30.10,29.80,19,6,4,28,15,,0.00,6,Rain-Snow,229
2013-11-30,39,36,33,34,33,30,93,87,69,30.21,29.96,29.77,12,6,4,23,18,,0.00,5,Rain-Snow,237